Live-Position
3D-Globus wird geladen...
Über Starlink 32558
Group: 3 satellites
Beschreibung wird geladen...
Nächste Überflüge
Passes for default location (London). Set your location on the main map for personalized predictions.
Höhenverlauf
Loading altitude history...
No altitude history available
Zweizeiliger Elementsatz
1 62169U 24225G 26125.76944714 .00016494 00000-0 13860-2 0 9991
2 62169 70.0021 20.5887 0002958 268.3740 91.7080 14.98352580 78421
Epoch: 5. Mai 2026 •
Age: 5 hours
Aktueller Status
Höhe 577.8 km
Geschwindigkeit 7.57 km/s
Subsatellitenpunkt 37.13°N,
38.2°W
Startdatum 30. Nov. 2024
Alter 1.4 years
Typ internet
Startgruppe
Falcon 9 •
Group N-01[122] •
20 satellites
Starlink 32523
62165
Starlink 32551 62166
Starlink 32506 62167
Starlink 32562 62168
Starlink 32538 62170
Starlink 32257 62171
Starlink 32407 62172
Starlink 32575 62173
Starlink 32552 62174
Starlink 32534 62175
Starlink 32516 62176
Starlink 32542 62177
Starlink 32600 62178
Starlink 32584 62179
Starlink 32587 62180
Starlink 32602 62181
Starlink 32565 62182
Starlink 32589 62183
Starlink 32581 62184
Technische Details
Klassifizierung Payload
Masse 730.00 kg
Trockenmasse 700.00 kg
Gesamtmasse 730.00 kg
Länge 0.30 m
Durchmesser 4.10 m
Spannweite 29.00 m
Form Box + pan
Hersteller SPXS
Bus-Typ Starlink V2M
Phasenstatus In Orbit
Besitzer/Staat SPXS/US
Most Searched
Loading...